Hourly Weather Holodkovo

Today, 13 April, Tuesday

Time Temperature Precipitation Wind Pressure Humidity
00:00 +10°C° 0 mm 5 mps 748 mmHg 74%
01:00 +10°C° 0 mm 4 mps 748 mmHg 78%
02:00 +9°C° 0 mm 3 mps 748 mmHg 81%
03:00 +9°C° 0 mm 3 mps 748 mmHg 82%
04:00 +9°C° 0 mm 3 mps 748 mmHg 82%
05:00 +8°C° 0 mm 3 mps 748 mmHg 83%
06:00 +10°C° 0 mm 4 mps 748 mmHg 76%
07:00 +11°C° 0 mm 4 mps 748 mmHg 69%
08:00 +13°C° 0 mm 5 mps 748 mmHg 60%
09:00 +15°C° 0 mm 5 mps 748 mmHg 55%
10:00 +16°C° 0 mm 5 mps 748 mmHg 49%
11:00 +19°C° 0 mm 6 mps 748 mmHg 44%
12:00 +20°C° 0 mm 6 mps 748 mmHg 40%
13:00 +20°C° 0 mm 6 mps 747 mmHg 36%
14:00 +21°C° 0 mm 7 mps 747 mmHg 32%
15:00 +20°C° 0 mm 6 mps 747 mmHg 35%
16:00 +20°C° 0 mm 5 mps 746 mmHg 37%
17:00 +19°C° 0 mm 4 mps 746 mmHg 40%
18:00 +17°C° 0 mm 3 mps 746 mmHg 46%
19:00 +14°C° 0 mm 3 mps 746 mmHg 51%
20:00 +13°C° 0 mm 3 mps 746 mmHg 56%
21:00 +12°C° 0 mm 3 mps 746 mmHg 60%
22:00 +11°C° 0 mm 3 mps 746 mmHg 64%
23:00 +11°C° 0 mm 3 mps 746 mmHg 68%

Tomorrow, 14 April, Wednesday

Time Temperature Precipitation Wind Pressure Humidity
00:00 +10°C° 0 mm 3 mps 746 mmHg 70%
01:00 +10°C° 0 mm 3 mps 746 mmHg 72%
02:00 +9°C° 0 mm 3 mps 746 mmHg 74%
03:00 +9°C° 0 mm 3 mps 745 mmHg 77%
04:00 +8°C° 0 mm 3 mps 745 mmHg 79%
05:00 +8°C° 0 mm 3 mps 745 mmHg 82%
06:00 +10°C° 0 mm 3 mps 745 mmHg 74%
07:00 +11°C° 0 mm 3 mps 745 mmHg 65%
08:00 +13°C° 0 mm 4 mps 745 mmHg 57%
09:00 +14°C° 0 mm 4 mps 744 mmHg 50%
10:00 +16°C° 0 mm 5 mps 744 mmHg 43%
11:00 +17°C° 0 mm 5 mps 744 mmHg 36%
12:00 +19°C° 0 mm 5 mps 744 mmHg 36%
13:00 +19°C° 0 mm 5 mps 743 mmHg 36%
14:00 +20°C° 0 mm 5 mps 743 mmHg 36%
15:00 +19°C° 0 mm 5 mps 743 mmHg 39%
16:00 +18°C° 0 mm 4 mps 743 mmHg 42%
17:00 +17°C° 0 mm 3 mps 742 mmHg 45%
18:00 +16°C° 0 mm 3 mps 743 mmHg 55%
19:00 +14°C° 0 mm 2 mps 743 mmHg 65%
20:00 +12°C° 0 mm 2 mps 743 mmHg 75%
21:00 +12°C° 0 mm 2 mps 743 mmHg 77%
22:00 +10°C° 0 mm 2 mps 743 mmHg 80%
23:00 +11°C° 0 mm 1 mps 742 mmHg 83%

Day after tomorrow, 15 April, Thursday

Time Temperature Precipitation Wind Pressure Humidity
00:00 +11°C° 0 mm 1 mps 742 mmHg 84%
01:00 +10°C° 0 mm 1 mps 742 mmHg 84%
02:00 +9°C° 0 mm 2 mps 742 mmHg 85%
03:00 +10°C° 0 mm 1 mps 742 mmHg 84%
04:00 +10°C° 0 mm 1 mps 742 mmHg 82%
05:00 +10°C° 0 mm 1 mps 742 mmHg 81%
06:00 +11°C° 0 mm 1 mps 742 mmHg 76%
07:00 +12°C° 0 mm 1 mps 742 mmHg 71%
08:00 +13°C° 0 mm 1 mps 742 mmHg 67%
09:00 +14°C° 0 mm 2 mps 742 mmHg 62%
10:00 +15°C° 0 mm 2 mps 742 mmHg 57%
11:00 +16°C° 0 mm 3 mps 741 mmHg 52%
12:00 +16°C° 0.1 mm 2 mps 741 mmHg 51%
13:00 +17°C° 0.1 mm 2 mps 741 mmHg 49%
14:00 +17°C° 0.1 mm 2 mps 741 mmHg 47%
15:00 +16°C° 0.1 mm 2 mps 741 mmHg 52%
16:00 +16°C° 0.1 mm 2 mps 741 mmHg 57%
17:00 +15°C° 0.1 mm 2 mps 741 mmHg 62%
18:00 +14°C° 0.1 mm 2 mps 741 mmHg 69%
19:00 +13°C° 0.1 mm 2 mps 741 mmHg 75%
20:00 +12°C° 0.1 mm 2 mps 741 mmHg 82%
21:00 +11°C° 0 mm 1 mps 741 mmHg 83%
22:00 +11°C° 0 mm 1 mps 741 mmHg 84%
23:00 +10°C° 0 mm 1 mps 741 mmHg 85%

16 April, Friday

Time Temperature Precipitation Wind Pressure Humidity
00:00 +10°C° 0 mm 1 mps 741 mmHg 85%
01:00 +10°C° 0 mm 1 mps 741 mmHg 85%
02:00 +11°C° 0 mm 1 mps 741 mmHg 85%
03:00 +10°C° 0.1 mm 1 mps 741 mmHg 86%
04:00 +10°C° 0.1 mm 1 mps 741 mmHg 87%
05:00 +10°C° 0.1 mm 1 mps 741 mmHg 88%
06:00 +10°C° 0.1 mm 2 mps 741 mmHg 85%
07:00 +10°C° 0.1 mm 2 mps 741 mmHg 83%
08:00 +11°C° 0.1 mm 3 mps 741 mmHg 81%
09:00 +12°C° 0.3 mm 2 mps 742 mmHg 80%
10:00 +12°C° 0.3 mm 2 mps 742 mmHg 79%
11:00 +13°C° 0.3 mm 2 mps 742 mmHg 78%
12:00 +14°C° 0.1 mm 2 mps 742 mmHg 72%
13:00 +15°C° 0.1 mm 2 mps 742 mmHg 67%
14:00 +16°C° 0.1 mm 2 mps 742 mmHg 61%
15:00 +16°C° 0.2 mm 2 mps 742 mmHg 62%
16:00 +16°C° 0.2 mm 2 mps 742 mmHg 63%
17:00 +16°C° 0.2 mm 2 mps 742 mmHg 64%
18:00 +15°C° 1 mm 1 mps 743 mmHg 72%
19:00 +13°C° 1 mm 1 mps 743 mmHg 80%
20:00 +12°C° 1 mm 1 mps 743 mmHg 88%
21:00 +11°C° 0.8 mm 3 mps 743 mmHg 88%
22:00 +11°C° 0.8 mm 4 mps 744 mmHg 87%
23:00 +10°C° 0.8 mm 5 mps 744 mmHg 87%

17 April, Saturday

Time Temperature Precipitation Wind Pressure Humidity
00:00 +9°C° 0.3 mm 6 mps 744 mmHg 87%
01:00 +9°C° 0.3 mm 6 mps 744 mmHg 87%
02:00 +9°C° 0.3 mm 7 mps 744 mmHg 87%
03:00 +8°C° 0.2 mm 7 mps 744 mmHg 87%
04:00 +6°C° 0.2 mm 7 mps 745 mmHg 88%
05:00 +6°C° 0.2 mm 7 mps 745 mmHg 88%
06:00 +6°C° 0 mm 7 mps 745 mmHg 86%
07:00 +7°C° 0 mm 8 mps 746 mmHg 83%
08:00 +7°C° 0 mm 8 mps 746 mmHg 81%
09:00 +9°C° 0 mm 8 mps 746 mmHg 76%
10:00 +10°C° 0 mm 8 mps 746 mmHg 72%
11:00 +10°C° 0 mm 9 mps 747 mmHg 68%
12:00 +11°C° 0 mm 8 mps 747 mmHg 63%
13:00 +11°C° 0 mm 8 mps 747 mmHg 59%
14:00 +12°C° 0 mm 8 mps 747 mmHg 55%
15:00 +11°C° 0 mm 8 mps 747 mmHg 53%
16:00 +11°C° 0 mm 8 mps 748 mmHg 50%
17:00 +10°C° 0 mm 8 mps 748 mmHg 48%
18:00 +9°C° 0 mm 7 mps 749 mmHg 50%
19:00 +8°C° 0 mm 7 mps 749 mmHg 52%
20:00 +6°C° 0 mm 7 mps 749 mmHg 54%
21:00 +6°C° 0 mm 7 mps 750 mmHg 56%
22:00 +5°C° 0 mm 7 mps 750 mmHg 58%
23:00 +4°C° 0 mm 6 mps 750 mmHg 60%

18 April, Sunday

Time Temperature Precipitation Wind Pressure Humidity
00:00 +4°C° 0 mm 6 mps 751 mmHg 63%
01:00 +3°C° 0 mm 6 mps 751 mmHg 65%
02:00 +3°C° 0 mm 6 mps 751 mmHg 67%
03:00 +2°C° 0 mm 6 mps 752 mmHg 68%
04:00 +2°C° 0 mm 5 mps 752 mmHg 69%
05:00 +1°C° 0 mm 5 mps 752 mmHg 70%
06:00 +2°C° 0 mm 5 mps 753 mmHg 66%
07:00 +4°C° 0 mm 6 mps 753 mmHg 62%
08:00 +5°C° 0 mm 6 mps 753 mmHg 58%
09:00 +7°C° 0 mm 6 mps 754 mmHg 53%
10:00 +8°C° 0 mm 6 mps 754 mmHg 49%
11:00 +9°C° 0 mm 6 mps 754 mmHg 44%
12:00 +9°C° 0 mm 5 mps 754 mmHg 41%
13:00 +10°C° 0 mm 5 mps 754 mmHg 38%
14:00 +10°C° 0 mm 5 mps 754 mmHg 35%
15:00 +10°C° 0 mm 5 mps 754 mmHg 37%
16:00 +11°C° 0 mm 4 mps 754 mmHg 39%
17:00 +10°C° 0 mm 4 mps 754 mmHg 40%
18:00 +8°C° 0 mm 4 mps 754 mmHg 44%
19:00 +7°C° 0 mm 3 mps 754 mmHg 48%
20:00 +5°C° 0 mm 3 mps 754 mmHg 51%
21:00 +5°C° 0 mm 3 mps 754 mmHg 52%
22:00 +4°C° 0 mm 3 mps 754 mmHg 53%
23:00 +4°C° 0 mm 3 mps 755 mmHg 54%
Show more